Location: Newark
(45.8667°N, 9.7333°E)
Time: 18:07:29
(UTC+00:00)

AO-73 - Pass Details

Date: 01 March 2020
Orbit: 581 x 664 km, 97.6° (Epoch: 04 April)

Event Time Altitude Azimuth Distance (km) Brightness Sun altitude
Rises 18:01:41 0° 216° (SW) 2,944 ? -10.1°
Reaches altitude 10° 18:05:01 10° 243° (WSW) 2,057 ? -10.7°
Maximum altitude 18:07:11 13° 272° (W) 1,857 ? -11.1°
Drops below altitude 10° 18:09:22 10° 301° (WNW) 2,080 ? -11.4°
Sets 18:12:48 0° 329° (NNW) 3,008 ? -12.0°
